weather.gov     
National Weather Service

Weather Roundup
NWS Homepage
This page is being discontinued on March 12, 2014.
The same data is available at this site. Please update your bookmarks.
Thank you, and we apologize for the inconvenience.
Please send an email to SR-SRH.Webmaster@noaa.gov with any concerns.


Current Version
Previous Version:    01  02  03  04  05  06  07  08  09  10  11  12  13  14  15  16  17  18  19  20  21  22  23  24  25  26  27  28  29  30  
   31  32  33  34  35  36  37  38  39  40  41  42  43  44  45  46  47  48  49  50  51  52  53  54  55  56  57  58  59  60  
[Printable]
548
NZUS59 KLOT 021210
HRRLOT

CHICAGO AREA WEATHER ROUNDUP
NATIONAL WEATHER SERVICE CHICAGO/ROMEOVILLE IL
700 AM CDT TUE SEP 02 2014

NOTE: "FAIR" INDICATES FEW OR NO CLOUDS BELOW 12,000 FEET WITH NO
SIGNIFICANT WEATHER AND/OR OBSTRUCTIONS TO VISIBILITY.

* THESE STATIONS ARE NOT UNDER NWS QUALITY CONTROL. THEY ALSO MAY NOT
  REPORT WEATHER SUCH AS PRECIPITATION OR FOG.

ILZ005-006-012>014-019>023-021300-
NORTHEAST ILLINOIS

CITY           SKY/WX    TMP DP  RH WIND       PRES   REMARKS
OHARE          MOCLDY    68  63  84 CALM      29.87S
6HR MIN TEMP:  67; 6HR MAX TEMP:  71; 6HR PCP:  0.02;

MIDWAY         MOCLDY    69  67  93 CALM      29.88R
6HR MIN TEMP:  69; 6HR MAX TEMP:  75;

AURORA         PTCLDY    64  61  90 CALM      29.88S FOG
6HR MIN TEMP:  62; 6HR MAX TEMP:  69; 6HR PCP: TRACE;

LANSING*         N/A    N/A N/A N/A MISG        N/A
JOLIET*        MOCLDY    65  63  96 CALM      29.89S FOG
WAUKEGAN       PTCLDY    63  62  97 CALM      29.87R FOG
6HR MIN TEMP:  63; 6HR MAX TEMP:  68; 6HR PCP: TRACE;

DUPAGE AIRPORT PTCLDY    64  62  93 CALM      29.88R
6HR MIN TEMP:  64; 6HR MAX TEMP:  69; 6HR PCP: TRACE;

WHEELING       PTCLDY    68  64  87 CALM      29.89R FOG
6HR MIN TEMP:  67; 6HR MAX TEMP:  72;

KANKAKEE*      LGT RAIN  68  67  96 CALM      29.89F
MORRIS*        MOCLDY    67  67 100 CALM      29.88S FOG
LEWIS AIRPORT* MOCLDY    64  64 100 CALM      29.88F FOG
NORTHERLY IS     N/A     71  66  84 W5          N/A
$$

WIZ051-052-058>065-066-070>072-021300-
SOUTHEAST WISCONSIN

CITY           SKY/WX    TMP DP  RH WIND       PRES   REMARKS
MILWAUKEE      PTCLDY    64  61  90 CALM      29.87S
6HR MIN TEMP:  64; 6HR MAX TEMP:  69;

KENOSHA*       PTCLDY    61  61 100 W3        29.88S
RACINE*        PTCLDY    64  62  93 W5        29.89R
BURLINGTON     FOG       55  55 100 CALM      29.88S VSB<1/4
WAUKESHA       CLEAR     57  57 100 CALM      29.90R
WEST BEND      FOG       55  54  94 CALM      29.88R VSB 1/4
$$

INZ001>003-010>013-019-020-021300-
NORTHWEST INDIANA

CITY           SKY/WX    TMP DP  RH WIND       PRES   REMARKS
GARY*          MOCLDY    70  68  94 S5        29.88S
MICHIGAN CITY* NOT AVBL
RENSSELAER*    NOT AVBL
VALPARAISO     CLOUDY    69  67  93 SW8       29.90R
$$

LMZ740>746-021300-
SOUTHERN LAKE MICHIGAN

STATION/POSITION TIME  SKY/WX   TEMP WIND        PRES    VSBY
                                AIR  DIR/SP/G
                 (UTC)          (F)  (DEG/KT/KT) (MB)    (MI)
HARRISON CRIB    1200            70  290/  3/  4   N/A
BURNHAM HARBOR   1200            71  270/  3/  5   N/A
CALUMET HARBOR   1200            69  250/  3/  4 1010.5F
BURNS HARBOR     NOT AVBL
MICHIGAN CITY    1200            69  160/  6/  9   N/A
$$

ABBREVIATIONS USED IN REMARKS
   TC - TEMPERATURE IN CELSIUS
  WCI - WIND CHILL INDEX
   HX - HEAT INDEX
  VSB - VISIBILITY
$$




U.S. Dept. of Commerce
NOAA National Weather Service
1325 East West Highway
Silver Spring, MD 20910
E-mail: w-nws.webmaster@noaa.gov
Page last modified: May 16, 2007
NATIONAL WEATHER SERVICE: for Safety, for Work, for Fun - FOR LIFE